Tracking 30298 objects as of 27-Apr-2025
HD Live streaming from Space Station
objects crossing your sky now

STARLINK-32425

Track STARLINK-32425 now!
10-day predictions


NORAD ID: 61216
Int'l Code: 2024-171S
Perigee: 481.3 km
Apogee: 483.4 km
Inclination: 53.2 °
Period: 94.1 minutes
Semi major axis: 6853 km
RCS: Unknown
Launch date: September 20, 2024
Source: United States (US)
Launch site: AIR FORCE WESTERN TEST RANGE (AFWTR)
Your satellite tracking list
Your tracking list is empty




NASA's NSSDC Master Catalog

Two Line Element Set (TLE):
1 61216U 24171S   25116.89062354  .00000825  00000-0  39990-4 0  9992
2 61216  53.1627 354.0536 0001544  83.2041 276.9135 15.30190967 33864
Source of the keplerian elements: AFSPC